Time,TemperatureF,DewpointF,PressureIn,WindDirection,WindDirectionDegrees,WindSpeedMPH,WindSpeedGustMPH,Humidity,HourlyPrecipIn,Conditions,Clouds,dailyrainin,SoftwareType,DateUTC
2014-04-23 00:02:00,39.0,-99.9,29.75,SSE,160,3.0,5.0,-999,-99.99,,,-99.99,,2014-04-23 08:02:00,
2014-04-23 00:13:00,39.0,-99.9,29.75,SSE,160,3.0,5.0,-999,-99.99,,,-99.99,,2014-04-23 08:13:00,
2014-04-23 00:22:00,39.0,-99.9,29.75,SSE,160,3.0,5.0,-999,-99.99,,,-99.99,,2014-04-23 08:22:00,
2014-04-23 00:32:00,39.0,-99.9,29.75,SSE,160,3.0,5.0,-999,-99.99,,,-99.99,,2014-04-23 08:32:00,
2014-04-23 00:43:00,39.0,-99.9,29.75,SSE,160,3.0,5.0,-999,-99.99,,,-99.99,,2014-04-23 08:43:00,
2014-04-23 00:53:00,38.0,-99.9,29.75,SSE,160,3.0,6.0,-999,-99.99,,,-99.99,,2014-04-23 08:53:00,
2014-04-23 01:12:00,38.0,-99.9,29.75,SSE,160,3.0,6.0,-999,-99.99,,,-99.99,,2014-04-23 09:12:00,
2014-04-23 01:22:00,37.0,-99.9,29.75,West,280,1.0,2.0,-999,-99.99,,,-99.99,,2014-04-23 09:22:00,
2014-04-23 01:34:00,37.0,-99.9,29.75,West,280,1.0,2.0,-999,-99.99,,,-99.99,,2014-04-23 09:34:00,
2014-04-23 01:43:00,37.0,-99.9,29.75,West,280,1.0,2.0,-999,-99.99,,,-99.99,,2014-04-23 09:43:00,
2014-04-23 01:54:00,38.0,-99.9,29.74,SSE,160,2.0,5.0,-999,-99.99,,,-99.99,,2014-04-23 09:54:00,
2014-04-23 02:03:00,38.0,-99.9,29.74,SSE,160,2.0,5.0,-999,-99.99,,,-99.99,,2014-04-23 10:03:00,
2014-04-23 02:12:00,38.0,-99.9,29.74,SSE,160,2.0,5.0,-999,-99.99,,,-99.99,,2014-04-23 10:12:00,
2014-04-23 02:23:00,38.0,-99.9,29.74,SSE,150,2.0,5.0,-999,-99.99,,,-99.99,,2014-04-23 10:23:00,
2014-04-23 02:33:00,38.0,-99.9,29.74,SSE,150,2.0,5.0,-999,-99.99,,,-99.99,,2014-04-23 10:33:00,
2014-04-23 02:42:00,38.0,-99.9,29.74,SSE,150,2.0,5.0,-999,-99.99,,,-99.99,,2014-04-23 10:42:00,
2014-04-23 02:53:00,38.0,-99.9,29.74,North,0,0.0,2.0,-999,-99.99,,,-99.99,,2014-04-23 10:53:00,
2014-04-23 03:03:00,38.0,-99.9,29.74,North,0,0.0,2.0,-999,-99.99,,,-99.99,,2014-04-23 11:03:00,
2014-04-23 03:12:00,38.0,-99.9,29.74,North,0,0.0,2.0,-999,-99.99,,,-99.99,,2014-04-23 11:12:00,
2014-04-23 03:23:00,39.0,-99.9,29.74,North,0,0.0,1.0,-999,-99.99,,,-99.99,,2014-04-23 11:23:00,
2014-04-23 03:33:00,39.0,-99.9,29.74,North,0,0.0,1.0,-999,-99.99,,,-99.99,,2014-04-23 11:33:00,
2014-04-23 03:43:00,39.0,-99.9,29.74,North,0,0.0,1.0,-999,-99.99,,,-99.99,,2014-04-23 11:43:00,
2014-04-23 03:52:00,39.0,-99.9,29.74,NNE,30,2.0,2.0,-999,-99.99,,,-99.99,,2014-04-23 11:52:00,
2014-04-23 04:02:00,39.0,-99.9,29.74,NNE,30,2.0,2.0,-999,-99.99,,,-99.99,,2014-04-23 12:02:00,
2014-04-23 04:12:00,39.0,-99.9,29.74,NNE,30,2.0,2.0,-999,-99.99,,,-99.99,,2014-04-23 12:12:00,
2014-04-23 04:22:00,39.0,-99.9,29.73,North,0,0.0,1.0,-999,-99.99,,,-99.99,,2014-04-23 12:22:00,
2014-04-23 04:32:00,39.0,-99.9,29.73,North,0,0.0,1.0,-999,-99.99,,,-99.99,,2014-04-23 12:32:00,
2014-04-23 04:42:00,39.0,-99.9,29.73,North,0,0.0,1.0,-999,-99.99,,,-99.99,,2014-04-23 12:42:00,
2014-04-23 05:12:00,39.0,-99.9,29.73,NE,40,1.0,2.0,-999,-99.99,,,-99.99,,2014-04-23 13:12:00,
2014-04-23 05:22:00,39.0,-99.9,29.73,West,280,1.0,1.0,-999,-99.99,,,-99.99,,2014-04-23 13:22:00,
2014-04-23 05:32:00,39.0,-99.9,29.73,West,280,1.0,1.0,-999,-99.99,,,-99.99,,2014-04-23 13:32:00,
2014-04-23 05:42:00,39.0,-99.9,29.73,West,280,1.0,1.0,-999,-99.99,,,-99.99,,2014-04-23 13:42:00,
2014-04-23 05:52:00,39.0,-99.9,29.73,North,10,2.0,5.0,-999,-99.99,,,-99.99,,2014-04-23 13:52:00,
2014-04-23 06:12:00,39.0,-99.9,29.73,North,10,2.0,5.0,-999,-99.99,,,-99.99,,2014-04-23 14:12:00,
2014-04-23 06:22:00,39.0,-99.9,29.73,NNE,20,5.0,6.0,-999,-99.99,,,-99.99,,2014-04-23 14:22:00,
2014-04-23 06:32:00,39.0,-99.9,29.73,NNE,20,5.0,6.0,-999,-99.99,,,-99.99,,2014-04-23 14:32:00,
2014-04-23 06:42:00,39.0,-99.9,29.73,NNE,20,5.0,6.0,-999,-99.99,,,-99.99,,2014-04-23 14:42:00,
2014-04-23 06:52:00,39.0,-99.9,29.73,NNE,30,7.0,8.0,-999,-99.99,,,-99.99,,2014-04-23 14:52:00,
2014-04-23 07:02:00,39.0,-99.9,29.73,NNE,30,7.0,8.0,-999,-99.99,,,-99.99,,2014-04-23 15:02:00,
2014-04-23 07:12:00,39.0,-99.9,29.73,NNE,30,7.0,8.0,-999,-99.99,,,-99.99,,2014-04-23 15:12:00,
2014-04-23 07:22:00,39.0,-99.9,29.73,NNE,30,8.0,8.0,-999,-99.99,,,-99.99,,2014-04-23 15:22:00,
2014-04-23 07:34:00,39.0,-99.9,29.73,NNE,30,8.0,8.0,-999,-99.99,,,-99.99,,2014-04-23 15:34:00,
2014-04-23 07:44:00,39.0,-99.9,29.73,NNE,30,8.0,8.0,-999,-99.99,,,-99.99,,2014-04-23 15:44:00,
2014-04-23 07:54:00,39.0,-99.9,29.73,NNE,30,8.0,10.0,-999,-99.99,,,-99.99,,2014-04-23 15:54:00,
2014-04-23 08:03:00,39.0,-99.9,29.73,NNE,30,8.0,10.0,-999,-99.99,,,-99.99,,2014-04-23 16:03:00,
2014-04-23 08:13:00,39.0,-99.9,29.73,NNE,30,8.0,10.0,-999,-99.99,,,-99.99,,2014-04-23 16:13:00,
2014-04-23 08:24:00,39.0,-99.9,29.73,NNE,30,7.0,8.0,-999,-99.99,,,-99.99,,2014-04-23 16:24:00,
2014-04-23 08:33:00,39.0,-99.9,29.73,NNE,30,7.0,8.0,-999,-99.99,,,-99.99,,2014-04-23 16:33:00,
2014-04-23 08:43:00,39.0,-99.9,29.73,NNE,30,7.0,8.0,-999,-99.99,,,-99.99,,2014-04-23 16:43:00,
2014-04-23 08:53:00,40.0,-99.9,29.73,NNE,30,8.0,8.0,-999,-99.99,,,-99.99,,2014-04-23 16:53:00,
2014-04-23 09:04:00,40.0,-99.9,29.73,NNE,30,8.0,8.0,-999,-99.99,,,-99.99,,2014-04-23 17:04:00,
2014-04-23 09:13:00,40.0,-99.9,29.73,NNE,30,8.0,8.0,-999,-99.99,,,-99.99,,2014-04-23 17:13:00,
2014-04-23 09:25:00,40.0,-99.9,29.73,NNE,30,8.0,9.0,-999,-99.99,,,-99.99,,2014-04-23 17:25:00,
2014-04-23 09:34:00,40.0,-99.9,29.73,NNE,30,8.0,9.0,-999,-99.99,,,-99.99,,2014-04-23 17:34:00,
2014-04-23 09:43:00,40.0,-99.9,29.73,NNE,30,8.0,9.0,-999,-99.99,,,-99.99,,2014-04-23 17:43:00,
2014-04-23 09:52:00,40.0,-99.9,29.74,NE,40,7.0,7.0,-999,-99.99,,,-99.99,,2014-04-23 17:52:00,
2014-04-23 10:02:00,40.0,-99.9,29.74,NE,40,7.0,7.0,-999,-99.99,,,-99.99,,2014-04-23 18:02:00,
2014-04-23 10:22:00,40.0,-99.9,29.74,NE,40,7.0,7.0,-999,-99.99,,,-99.99,,2014-04-23 18:22:00,
2014-04-23 10:32:00,40.0,-99.9,29.74,NE,40,7.0,7.0,-999,-99.99,,,-99.99,,2014-04-23 18:32:00,
2014-04-23 10:42:00,40.0,-99.9,29.74,NE,40,7.0,7.0,-999,-99.99,,,-99.99,,2014-04-23 18:42:00,
2014-04-23 10:52:00,40.0,-99.9,29.74,NNE,30,7.0,8.0,-999,-99.99,,,-99.99,,2014-04-23 18:52:00,
2014-04-23 11:02:00,40.0,-99.9,29.74,NNE,30,7.0,8.0,-999,-99.99,,,-99.99,,2014-04-23 19:02:00,
2014-04-23 11:12:00,40.0,-99.9,29.74,NNE,30,7.0,8.0,-999,-99.99,,,-99.99,,2014-04-23 19:12:00,
2014-04-23 11:22:00,41.0,-99.9,29.74,NNE,30,9.0,9.0,-999,-99.99,,,-99.99,,2014-04-23 19:22:00,
2014-04-23 11:32:00,41.0,-99.9,29.74,NNE,30,9.0,9.0,-999,-99.99,,,-99.99,,2014-04-23 19:32:00,
2014-04-23 11:42:00,41.0,-99.9,29.74,NNE,30,9.0,9.0,-999,-99.99,,,-99.99,,2014-04-23 19:42:00,
2014-04-23 11:57:00,42.0,-99.9,29.74,NNE,30,9.0,10.0,-999,-99.99,,,-99.99,,2014-04-23 19:57:00,
2014-04-23 12:02:00,42.0,-99.9,29.74,NNE,30,9.0,10.0,-999,-99.99,,,-99.99,,2014-04-23 20:02:00,
2014-04-23 12:12:00,42.0,-99.9,29.74,NNE,30,9.0,10.0,-999,-99.99,,,-99.99,,2014-04-23 20:12:00,
2014-04-23 12:22:00,42.0,-99.9,29.74,NNE,30,9.0,9.0,-999,-99.99,,,-99.99,,2014-04-23 20:22:00,
2014-04-23 12:32:00,42.0,-99.9,29.74,NNE,30,9.0,9.0,-999,-99.99,,,-99.99,,2014-04-23 20:32:00,
2014-04-23 12:42:00,42.0,-99.9,29.74,NNE,30,9.0,9.0,-999,-99.99,,,-99.99,,2014-04-23 20:42:00,
2014-04-23 13:12:00,44.0,-99.9,29.75,NE,50,3.0,3.0,-999,-99.99,,,-99.99,,2014-04-23 21:12:00,
2014-04-23 13:22:00,44.0,-99.9,29.75,WSW,240,2.0,6.0,-999,-99.99,,,-99.99,,2014-04-23 21:22:00,
2014-04-23 13:34:00,44.0,-99.9,29.75,WSW,240,2.0,6.0,-999,-99.99,,,-99.99,,2014-04-23 21:34:00,
2014-04-23 13:44:00,44.0,-99.9,29.75,WSW,240,2.0,6.0,-999,-99.99,,,-99.99,,2014-04-23 21:44:00,
2014-04-23 13:53:00,45.0,-99.9,29.75,SW,230,3.0,7.0,-999,-99.99,,,-99.99,,2014-04-23 21:53:00,
2014-04-23 14:03:00,45.0,-99.9,29.75,SW,230,3.0,7.0,-999,-99.99,,,-99.99,,2014-04-23 22:03:00,
2014-04-23 14:13:00,45.0,-99.9,29.75,SW,230,3.0,7.0,-999,-99.99,,,-99.99,,2014-04-23 22:13:00,
2014-04-23 14:23:00,45.0,-99.9,29.75,WSW,240,2.0,5.0,-999,-99.99,,,-99.99,,2014-04-23 22:23:00,
2014-04-23 14:33:00,45.0,-99.9,29.75,WSW,240,2.0,5.0,-999,-99.99,,,-99.99,,2014-04-23 22:33:00,
2014-04-23 14:54:00,47.0,-99.9,29.74,SW,220,2.0,6.0,-999,-99.99,,,-99.99,,2014-04-23 22:54:00,
2014-04-23 15:03:00,47.0,-99.9,29.74,SW,220,2.0,6.0,-999,-99.99,,,-99.99,,2014-04-23 23:03:00,
2014-04-23 15:12:00,47.0,-99.9,29.74,SW,220,2.0,6.0,-999,-99.99,,,-99.99,,2014-04-23 23:12:00,
2014-04-23 15:22:00,45.0,-99.9,29.74,SW,220,2.0,5.0,-999,-99.99,,,-99.99,,2014-04-23 23:22:00,
2014-04-23 15:33:00,45.0,-99.9,29.74,SW,220,2.0,5.0,-999,-99.99,,,-99.99,,2014-04-23 23:33:00,
2014-04-23 15:43:00,45.0,-99.9,29.74,SW,220,2.0,5.0,-999,-99.99,,,-99.99,,2014-04-23 23:43:00,
2014-04-23 15:53:00,45.0,-99.9,29.74,WSW,240,2.0,6.0,-999,-99.99,,,-99.99,,2014-04-23 23:53:00,
2014-04-23 16:02:00,45.0,-99.9,29.74,WSW,240,2.0,6.0,-999,-99.99,,,-99.99,,2014-04-24 00:02:00,
2014-04-23 16:12:00,45.0,-99.9,29.74,WSW,240,2.0,6.0,-999,-99.99,,,-99.99,,2014-04-24 00:12:00,
2014-04-23 16:22:00,46.0,-99.9,29.73,WSW,240,2.0,6.0,-999,-99.99,,,-99.99,,2014-04-24 00:22:00,
2014-04-23 16:32:00,46.0,-99.9,29.73,WSW,240,2.0,6.0,-999,-99.99,,,-99.99,,2014-04-24 00:32:00,
2014-04-23 16:42:00,46.0,-99.9,29.73,WSW,240,2.0,6.0,-999,-99.99,,,-99.99,,2014-04-24 00:42:00,
2014-04-23 16:52:00,46.0,-99.9,29.73,WSW,250,1.0,3.0,-999,-99.99,,,-99.99,,2014-04-24 00:52:00,
2014-04-23 17:02:00,46.0,-99.9,29.73,WSW,250,1.0,3.0,-999,-99.99,,,-99.99,,2014-04-24 01:02:00,
2014-04-23 17:12:00,46.0,-99.9,29.73,WSW,250,1.0,3.0,-999,-99.99,,,-99.99,,2014-04-24 01:12:00,
2014-04-23 17:22:00,45.0,-99.9,29.73,WSW,250,2.0,7.0,-999,-99.99,,,-99.99,,2014-04-24 01:22:00,
2014-04-23 17:32:00,45.0,-99.9,29.73,WSW,250,2.0,7.0,-999,-99.99,,,-99.99,,2014-04-24 01:32:00,
2014-04-23 17:43:00,45.0,-99.9,29.73,WSW,250,2.0,7.0,-999,-99.99,,,-99.99,,2014-04-24 01:43:00,
2014-04-23 17:53:00,45.0,-99.9,29.73,WSW,240,1.0,3.0,-999,-99.99,,,-99.99,,2014-04-24 01:53:00,
2014-04-23 18:02:00,45.0,-99.9,29.73,WSW,240,1.0,3.0,-999,-99.99,,,-99.99,,2014-04-24 02:02:00,
2014-04-23 18:12:00,45.0,-99.9,29.73,WSW,240,1.0,3.0,-999,-99.99,,,-99.99,,2014-04-24 02:12:00,
2014-04-23 18:22:00,45.0,-99.9,29.72,WSW,250,2.0,5.0,-999,-99.99,,,-99.99,,2014-04-24 02:22:00,
2014-04-23 18:32:00,45.0,-99.9,29.72,WSW,250,2.0,5.0,-999,-99.99,,,-99.99,,2014-04-24 02:32:00,
2014-04-23 18:42:00,45.0,-99.9,29.72,WSW,250,2.0,5.0,-999,-99.99,,,-99.99,,2014-04-24 02:42:00,
2014-04-23 19:12:00,47.0,-99.9,29.72,North,0,0.0,2.0,-999,-99.99,,,-99.99,,2014-04-24 03:12:00,
2014-04-23 19:22:00,45.0,-99.9,29.72,WSW,240,1.0,3.0,-999,-99.99,,,-99.99,,2014-04-24 03:22:00,
2014-04-23 19:33:00,45.0,-99.9,29.72,WSW,240,1.0,3.0,-999,-99.99,,,-99.99,,2014-04-24 03:33:00,
2014-04-23 19:44:00,45.0,-99.9,29.72,WSW,240,1.0,3.0,-999,-99.99,,,-99.99,,2014-04-24 03:44:00,
2014-04-23 19:54:00,43.0,-99.9,29.72,North,0,0.0,2.0,-999,-99.99,,,-99.99,,2014-04-24 03:54:00,
2014-04-23 20:04:00,43.0,-99.9,29.72,North,0,0.0,2.0,-999,-99.99,,,-99.99,,2014-04-24 04:04:00,